Location: Newark
(45.4422°N, 16.2769°E)
Time: 21:18:25
(UTC+00:00)

S-56A Canister/Altair - Pass Details

Date: 15 December 2019
Orbit: 634 x 2498 km, 38.9° (Epoch: 27 January)

Event Time Altitude Azimuth Distance (km) Brightness Sun altitude
Rises 05:09:56 0° 185° (S) 4,901 11.8 -13.0°
Reaches altitude 10° 05:14:12 10° 169° (S) 4,232 11.7 -12.3°
Maximum altitude 05:21:44 20° 129° (SE) 3,955 12.2 -11.1°
Drops below altitude 10° 05:30:28 10° 91° (E) 5,045 12.9 -9.6°
Sets 05:36:12 0° 77° (ENE) 6,166 13.1 -8.7°
